星链-5749 (STARLINK-5749 )

导读 | 星芒AI

STARLINK-5749 是 SpaceX 星链计划中的一颗低轨通信卫星,属于第 14 批组网发射的星链卫星之一。该卫星运行在约 550 公里的近地轨道,旨在为全球用户提供高速互联网服务。作为星链星座的重要组成部分,STARLINK-5749 采用先进推进系统,具备自主变轨和避碰能力,有助于提升网络覆盖与稳定性。该卫星的部署推动了 SpaceX 实现全球宽带覆盖的目标。

基本信息
目录编号:
55569
目录名称:
STARLINK-5749
国际标识:
2023-020A
轨道中心:
EARTH
卫星名称:
星链-5749
卫星全名:
星链-5749 (STARLINK-5749 )
卫星状态:
在轨 (已飞行996 天)
发射日期:
2023-02-12 UTC
国别 :
美国 (US)
星等 :
--
轨道信息
数据来源 国际轨道数据
星历时间: 2025-11-04T02:30:27+0800
17小时前
查看轨道信息
半长轴: 6936.908km
偏心率: 0.0002252
轨道倾角: 43.003°
近地点辐角 264.340°
升交点赤经 329.211°
平近点角 95.719°
近地点: 557.21km
远地点: 560.336km
周期: 95.832分钟
每日圈数: 15.026363
详细信息
固有亮度:
5
最大亮度:
2.5
卫星平台:
Starlink v1.5
覆盖范围:
全球
运营商:
太空探索技术公司
运营商所在国:
美国
制造商(研发单位):
太空探索技术公司
制造商所在国:
美国
使用方式:
暂无
卫星简介
星链(Starlink)计划是由太空探索技术公司(SpaceX)提出的一个巨型低轨卫星互联网星座项目,计划在2019年至2024年间在太空搭建由约1.2万颗卫星组成的“星链”网络,其中1584颗将部署在地球上空550千米处的近地轨道,并从2020年开始工作。该卫星仍在工作。
2D轨道图
3D轨道图
轨道高度分析图
轨道倾角分析图
轨道综合分析图
查看轨道综合分析图